Weather History for KCZZ - September, 2011

Change the Weather History Date:

Thursday, September 29, 2011

  Actual Average Record
Temperature  
Mean Temperature 70 °F 65 °F  
Max Temperature 90 °F 85 °F 101 °F (1999)
Min Temperature 49 °F 46 °F 34 °F (1982)
Degree Days  
Heating Degree Days 0 2  
Month to date heating degree days 10 35  
Since 1 July heating degree days 31 49  
Cooling Degree Days 5 3  
Month to date cooling degree days 173 159  
Year to date cooling degree days 688 809  
Growing Degree Days 19 (Base 50)    
Moisture  
Dew Point 40 °F    
Average Humidity 44    
Maximum Humidity 77    
Minimum Humidity 11    
Precipitation  
Precipitation 0.00 in 0.02 in 0.25 in (1971)
Month to date precipitation 0.20 0.33  
Year to date precipitation 8.17 11.50  
Since 1 July precipitation 0.42 1.35  
Snow  
Snow 0.00 in - - ()
Month to date snowfall 0.0  
Year to date snowfall 0.0  
Since 1 July snowfall 0.0  
Snow Depth 0.00 in    
Sea Level Pressure  
Sea Level Pressure 29.90 in    
Wind  
Wind Speed 7 mph (East)    
Max Wind Speed 18 mph    
Max Gust Speed 22 mph    
T = Trace of Precipitation, MM = Missing Value Source: NWS Daily Summary

Daily Weather History Graph

Daily Weather History Graph

Search for Another Location

Airport or City:

Trip Planner

Search our weather history database for the weather conditions in past years. The results will help you decide how hot, cold, wet, or windy it might be!

Date:

Astronomy

Sep. 29, 2011 Rise Set
Actual Time 6:38 AM PDT 6:33 PM PDT
Civil Twilight 6:13 AM PDT 6:57 PM PDT
Nautical Twilight 5:45 AM PDT 7:26 PM PDT
Astronomical Twilight 5:16 AM PDT 7:55 PM PDT
Moon 9:15 AM PDT (9/29) 8:04 PM PDT (9/29)
Length of Visible Light 12h 43m
Length of Day
11h 54m
Waxing Crescent, 8% of the Moon is Illuminated
Sep 29
Waxing Crescent
Oct 3
First Quarter
Oct 11
Full
Oct 19
Last Quarter
Oct 26
New

Hourly Weather History & Observations

Time (PDT) Temp. Dew Point Humidity Pressure Visibility Wind Dir Wind Speed Gust Speed Precip Events Conditions
12:52 AM 54.0 °F 46.9 °F 77% 29.91 in - NE 4.6 mph - N/A   Unknown
1:52 AM 52.0 °F 45.0 °F 77% 29.91 in - NE 6.9 mph - N/A   Unknown
2:52 AM 53.1 °F 45.0 °F 74% 29.90 in - East 3.5 mph - N/A   Unknown
3:52 AM 53.1 °F 45.0 °F 74% 29.89 in - NE 4.6 mph - N/A   Unknown
4:52 AM 53.1 °F 45.0 °F 74% 29.91 in - NE 5.8 mph - N/A   Unknown
5:52 AM 51.1 °F 45.0 °F 80% 29.92 in - NE 3.5 mph - N/A   Unknown
6:52 AM 50.0 °F 42.1 °F 74% 29.94 in - NE 5.8 mph - N/A   Unknown
7:52 AM 59.0 °F 42.1 °F 53% 29.94 in - ENE 3.5 mph - N/A   Unknown
8:52 AM 71.1 °F 41.0 °F 34% 29.93 in - Calm Calm - N/A   Unknown
9:52 AM 81.0 °F 35.1 °F 19% 29.92 in - Calm Calm - N/A   Unknown
10:52 AM 87.1 °F 28.0 °F 12% 29.90 in - South 9.2 mph - N/A   Unknown
11:52 AM 88.0 °F 27.0 °F 11% 29.89 in - SW 10.4 mph - N/A   Unknown
12:52 PM 88.0 °F 26.1 °F 11% 29.88 in - SSW 12.7 mph - N/A   Unknown
1:52 PM 88.0 °F 30.9 °F 13% 29.87 in - SW 12.7 mph - N/A   Unknown
2:52 PM 88.0 °F 39.0 °F 18% 29.85 in - SW 15.0 mph - N/A   Unknown
3:52 PM 86.0 °F 46.0 °F 25% 29.85 in - SSW 15.0 mph 19.6 mph N/A   Unknown
4:52 PM 82.0 °F 42.1 °F 24% 29.86 in - SW 13.8 mph - N/A   Unknown
5:52 PM 77.0 °F 41.0 °F 28% 29.88 in - SW 13.8 mph - N/A   Unknown
6:52 PM 71.1 °F 45.0 °F 39% 29.90 in - SSW 8.1 mph - N/A   Unknown
7:52 PM 64.9 °F 44.1 °F 47% 29.92 in - Calm Calm - N/A   Unknown
8:52 PM 62.1 °F 43.0 °F 50% 29.92 in - NNE 3.5 mph - N/A   Unknown
9:52 PM 60.1 °F 42.1 °F 51% 29.93 in - NE 4.6 mph - N/A   Unknown
10:52 PM 57.0 °F 42.1 °F 57% 29.93 in - NE 4.6 mph - N/A   Unknown
11:52 PM 55.9 °F 42.1 °F 60% 29.93 in - NE 5.8 mph - N/A   Unknown